| time (UTC) | temp C | wind direction | speed KPH | gust KPH | rain 1hr cm | rain 24hr cm | rain mn cm | humidity % | barometer mb |
| 20260508070504 | 11 | 209 | 0.0 | 1.6 | 0.00 | 1.12 | 0.00 | 89 | 1021.8 |
| 20260508070004 | 11 | 198 | 0.0 | 3.2 | 0.00 | 1.12 | 0.00 | 89 | 1022.0 |
| 20260508065004 | 10 | 211 | 1.6 | 3.2 | 0.00 | 1.12 | 0.00 | 91 | 1021.9 |
| 20260508064004 | 10 | 206 | 0.0 | 1.6 | 0.00 | 1.12 | 0.00 | 93 | 1021.9 |
| 20260508063004 | 9 | 222 | 0.0 | 1.6 | 0.00 | 1.12 | 0.00 | 92 | 1022.2 |
| 20260508062504 | 9 | 236 | 1.6 | 3.2 | 0.00 | 1.12 | 0.00 | 93 | 1022.1 |
| 20260508062004 | 9 | 260 | 0.0 | 0.0 | 0.00 | 1.12 | 0.00 | 93 | 1022.1 |
| 20260508061504 | 9 | 261 | 0.0 | 3.2 | 0.00 | 1.12 | 0.00 | 93 | 1022.1 |
| 20260508061004 | 9 | 243 | 1.6 | 1.6 | 0.00 | 1.12 | 0.00 | 93 | 1022.3 |
| 20260508060504 | 9 | 240 | 0.0 | 1.6 | 0.00 | 1.12 | 0.00 | 93 | 1022.2 |
| 20260508055504 | 8 | 225 | 0.0 | 1.6 | 0.00 | 1.12 | 0.00 | 94 | 1022.1 |
| 20260508055004 | 8 | 155 | 1.6 | 1.6 | 0.00 | 1.12 | 0.00 | 94 | 1022.0 |
| 20260508054504 | 8 | 153 | 0.0 | 1.6 | 0.00 | 1.12 | 0.00 | 94 | 1022.0 |
| 20260508054003 | 8 | 153 | 0.0 | 0.0 | 0.00 | 1.12 | 0.00 | 94 | 1022.0 |
| 20260508053504 | 8 | 153 | 0.0 | 0.0 | 0.00 | 1.12 | 0.00 | 94 | 1021.8 |
| 20260508053004 | 8 | 153 | 0.0 | 1.6 | 0.00 | 1.12 | 0.00 | 94 | 1021.8 |
| 20260508052504 | 8 | 146 | 1.6 | 1.6 | 0.00 | 1.12 | 0.00 | 94 | 1022.1 |
| 20260508052004 | 8 | 141 | 0.0 | 1.6 | 0.00 | 1.12 | 0.00 | 94 | 1021.5 |
| 20260508051505 | 8 | 183 | 0.0 | 0.0 | 0.00 | 1.12 | 0.00 | 94 | 1021.7 |
| 20260508050504 | 8 | 190 | 0.0 | 0.0 | 0.00 | 1.12 | 0.00 | 95 | 1021.5 |
| 20260508045503 | 8 | 187 | 1.6 | 3.2 | 0.00 | 1.12 | 0.00 | 94 | 1021.3 |
| 20260508045004 | 8 | 224 | 0.0 | 0.0 | 0.00 | 1.12 | 0.00 | 95 | 1021.1 |
| 20260508044504 | 8 | 225 | 0.0 | 1.6 | 0.00 | 1.12 | 0.00 | 95 | 1020.9 |
| 20260508044003 | 8 | 228 | 1.6 | 4.8 | 0.00 | 1.12 | 0.00 | 95 | 1021.1 |
| 20260508043504 | 8 | 235 | 1.6 | 4.8 | 0.00 | 1.12 | 0.00 | 95 | 1021.2 |
| 20260508043004 | 8 | 216 | 3.2 | 4.8 | 0.00 | 1.12 | 0.00 | 95 | 1021.1 |
| 20260508042503 | 8 | 223 | 0.0 | 1.6 | 0.00 | 1.12 | 0.00 | 95 | 1020.8 |
| 20260508042004 | 8 | 223 | 0.0 | 1.6 | 0.00 | 1.12 | 0.00 | 95 | 1020.9 |
| 20260508041504 | 8 | 222 | 0.0 | 0.0 | 0.00 | 1.12 | 0.00 | 95 | 1020.8 |
| 20260508040004 | 8 | 222 | 0.0 | 0.0 | 0.00 | 1.12 | 0.00 | 95 | 1021.3 |
| 20260508035504 | 8 | 223 | 0.0 | 1.6 | 0.00 | 1.12 | 0.00 | 95 | 1021.2 |
| 20260508035003 | 8 | 225 | 1.6 | 3.2 | 0.00 | 1.12 | 0.00 | 95 | 1021.1 |
| 20260508034504 | 8 | 299 | 0.0 | 1.6 | 0.00 | 1.12 | 0.00 | 95 | 1021.2 |
| 20260508033504 | 8 | 281 | 0.0 | 1.6 | 0.00 | 1.12 | 0.00 | 95 | 1021.0 |
| 20260508033004 | 8 | 242 | 0.0 | 1.6 | 0.00 | 1.12 | 0.00 | 95 | 1021.1 |
| 20260508032004 | 8 | 209 | 1.6 | 3.2 | 0.00 | 1.12 | 0.00 | 95 | 1021.1 |
| 20260508031504 | 8 | 217 | 0.0 | 1.6 | 0.00 | 1.12 | 0.00 | 95 | 1021.0 |
| 20260508031004 | 8 | 214 | 1.6 | 3.2 | 0.00 | 1.12 | 0.00 | 95 | 1021.0 |
| 20260508030504 | 9 | 289 | 0.0 | 1.6 | 0.00 | 1.12 | 0.00 | 95 | 1021.2 |
| 20260508030004 | 9 | 286 | 0.0 | 1.6 | 0.00 | 1.12 | 0.00 | 95 | 1021.0 |
| 20260508025504 | 9 | 263 | 0.0 | 0.0 | 0.00 | 1.12 | 0.00 | 95 | 1021.2 |
| 20260508025005 | 9 | 259 | 0.0 | 0.0 | 0.00 | 1.12 | 0.00 | 95 | 1021.0 |
| 20260508024503 | 9 | 259 | 0.0 | 1.6 | 0.00 | 1.12 | 0.00 | 94 | 1021.0 |
| 20260508024003 | 9 | 255 | 0.0 | 1.6 | 0.00 | 1.12 | 0.00 | 94 | 1021.0 |
| 20260508023504 | 9 | 187 | 0.0 | 3.2 | 0.00 | 1.12 | 0.00 | 94 | 1020.9 |
| 20260508023004 | 9 | 193 | 1.6 | 3.2 | 0.00 | 1.12 | 0.00 | 94 | 1021.0 |
| 20260508021504 | 10 | 232 | 0.0 | 1.6 | 0.00 | 1.12 | 0.00 | 94 | 1021.2 |
| 20260508021003 | 10 | 229 | 1.6 | 3.2 | 0.00 | 1.12 | 0.00 | 94 | 1021.2 |
| 20260508020504 | 10 | 175 | 1.6 | 1.6 | 0.00 | 1.12 | 0.00 | 94 | 1021.2 |
| 20260508015504 | 10 | 187 | 0.0 | 0.0 | 0.00 | 1.12 | 0.00 | 94 | 1021.2 |
| 20260508015003 | 10 | 188 | 0.0 | 1.6 | 0.00 | 1.12 | 0.00 | 94 | 1021.2 |
| 20260508014004 | 10 | 199 | 0.0 | 1.6 | 0.00 | 1.12 | 0.00 | 94 | 1021.3 |
| 20260508013004 | 10 | 207 | 0.0 | 3.2 | 0.00 | 1.12 | 0.00 | 93 | 1021.5 |
| 20260508012503 | 10 | 206 | 0.0 | 0.0 | 0.00 | 1.12 | 0.00 | 93 | 1021.5 |
| 20260508012004 | 10 | 206 | 0.0 | 0.0 | 0.00 | 1.12 | 0.00 | 93 | 1021.5 |
| 20260508011504 | 10 | 206 | 0.0 | 0.0 | 0.00 | 1.12 | 0.00 | 93 | 1021.5 |
| 20260508011004 | 10 | 205 | 0.0 | 3.2 | 0.00 | 1.12 | 0.00 | 93 | 1021.8 |
| 20260508010504 | 10 | 229 | 1.6 | 3.2 | 0.00 | 1.12 | 0.00 | 93 | 1021.8 |
| 20260508010004 | 10 | 21 | 0.0 | 0.0 | 0.00 | 1.12 | 0.00 | 93 | 1021.9 |
| 20260508004504 | 10 | 31 | 1.6 | 3.2 | 0.00 | 1.12 | 0.00 | 93 | 1022.0 |
| 20260508003503 | 10 | 15 | 0.0 | 1.6 | 0.00 | 1.12 | 0.00 | 93 | 1022.0 |
| 20260508003004 | 10 | 16 | 0.0 | 1.6 | 0.00 | 1.12 | 0.00 | 93 | 1022.1 |
| 20260508002504 | 10 | 15 | 1.6 | 1.6 | 0.00 | 1.12 | 0.00 | 93 | 1022.2 |
| 20260508002004 | 10 | 343 | 0.0 | 0.0 | 0.00 | 1.12 | 0.00 | 93 | 1022.1 |
| 20260508001504 | 10 | 343 | 1.6 | 3.2 | 0.00 | 1.12 | 0.00 | 93 | 1022.2 |
| 20260508001004 | 10 | 324 | 1.6 | 1.6 | 0.00 | 1.12 | 0.00 | 93 | 1022.1 |
| 20260507235504 | 10 | 317 | 1.6 | 1.6 | 0.00 | 1.12 | 0.00 | 93 | 1022.2 |
| 20260507235004 | 10 | 289 | 1.6 | 1.6 | 0.00 | 1.12 | 0.00 | 94 | 1022.5 |
| 20260507234504 | 10 | 235 | 0.0 | 0.0 | 0.00 | 1.12 | 0.00 | 94 | 1022.3 |
| 20260507234004 | 10 | 235 | 0.0 | 3.2 | 0.00 | 1.12 | 0.00 | 94 | 1022.4 |
| 20260507233004 | 10 | 184 | 0.0 | 0.0 | 0.00 | 1.12 | 0.00 | 94 | 1022.6 |
| 20260507232504 | 10 | 184 | 0.0 | 0.0 | 0.00 | 1.12 | 0.00 | 93 | 1022.6 |
| 20260507231503 | 10 | 203 | 0.0 | 1.6 | 0.00 | 1.12 | 0.00 | 94 | 1022.4 |
| 20260507231004 | 10 | 201 | 0.0 | 1.6 | 0.00 | 1.12 | 0.00 | 93 | 1022.2 |
| 20260507230504 | 10 | 228 | 0.0 | 4.8 | 0.00 | 1.12 | 0.00 | 93 | 1022.4 |
| 20260507230004 | 10 | 160 | 0.0 | 1.6 | 0.00 | 1.12 | 0.00 | 93 | 1022.5 |
| 20260507225503 | 10 | 150 | 1.6 | 3.2 | 0.00 | 1.12 | 0.00 | 93 | 1022.4 |
| 20260507225004 | 10 | 231 | 1.6 | 3.2 | 0.00 | 1.12 | 0.00 | 93 | 1022.3 |
| 20260507224504 | 10 | 252 | 1.6 | 3.2 | 0.00 | 1.12 | 0.00 | 93 | 1022.4 |
| 20260507223505 | 10 | 251 | 0.0 | 0.0 | 0.00 | 1.12 | 0.00 | 93 | 1022.4 |
| 20260507223004 | 11 | 249 | 0.0 | 0.0 | 0.00 | 1.12 | 0.00 | 93 | 1022.5 |
| 20260507221505 | 11 | 255 | 1.6 | 3.2 | 0.00 | 1.12 | 0.00 | 93 | 1022.2 |
| 20260507221004 | 11 | 239 | 1.6 | 3.2 | 0.00 | 1.12 | 0.00 | 93 | 1022.2 |
| 20260507220003 | 11 | 326 | 1.6 | 1.6 | 0.00 | 1.12 | 0.00 | 94 | 1022.0 |
| 20260507215004 | 11 | 38 | 1.6 | 3.2 | 0.00 | 1.12 | 1.12 | 94 | 1022.1 |
| 20260507214503 | 11 | 66 | 1.6 | 3.2 | 0.00 | 1.12 | 1.12 | 94 | 1022.1 |
| 20260507214004 | 11 | 66 | 0.0 | 1.6 | 0.00 | 1.12 | 1.12 | 94 | 1022.2 |
| 20260507213504 | 11 | 66 | 1.6 | 3.2 | 0.00 | 1.12 | 1.12 | 94 | 1022.0 |
| 20260507213004 | 11 | 67 | 0.0 | 3.2 | 0.00 | 1.12 | 1.12 | 94 | 1022.1 |
| 20260507212504 | 11 | 75 | 1.6 | 4.8 | 0.00 | 1.12 | 1.12 | 94 | 1022.3 |
| 20260507212003 | 11 | 64 | 1.6 | 4.8 | 0.00 | 1.12 | 1.12 | 94 | 1022.1 |
| 20260507211504 | 11 | 76 | 1.6 | 4.8 | 0.00 | 1.12 | 1.12 | 94 | 1022.2 |
| 20260507211004 | 11 | 65 | 1.6 | 4.8 | 0.00 | 1.12 | 1.12 | 94 | 1022.3 |
| 20260507210504 | 11 | 55 | 1.6 | 3.2 | 0.00 | 1.12 | 1.12 | 94 | 1022.3 |
| 20260507210004 | 11 | 64 | 1.6 | 3.2 | 0.00 | 1.12 | 1.12 | 94 | 1022.2 |
| 20260507205503 | 11 | 48 | 1.6 | 3.2 | 0.00 | 1.12 | 1.12 | 94 | 1021.9 |
| 20260507205004 | 11 | 56 | 1.6 | 3.2 | 0.00 | 1.12 | 1.12 | 94 | 1022.0 |
| 20260507204503 | 11 | 60 | 1.6 | 3.2 | 0.00 | 1.12 | 1.12 | 93 | 1022.0 |
| 20260507204004 | 11 | 53 | 0.0 | 3.2 | 0.00 | 1.12 | 1.12 | 93 | 1022.0 |
| 20260507203504 | 11 | 53 | 0.0 | 3.2 | 0.00 | 1.12 | 1.12 | 93 | 1022.0 |
| 20260507203005 | 11 | 58 | 1.6 | 4.8 | 0.00 | 1.12 | 1.12 | 93 | 1021.8 |
| 20260507201504 | 11 | 37 | 1.6 | 8.0 | 0.00 | 1.12 | 1.12 | 93 | 1021.7 |
| 20260507201004 | 11 | 45 | 4.8 | 9.7 | 0.00 | 1.12 | 1.12 | 93 | 1021.7 |
| 20260507200504 | 11 | 41 | 6.4 | 11.3 | 0.00 | 1.12 | 1.12 | 93 | 1021.7 |
| 20260507200004 | 11 | 30 | 4.8 | 12.9 | 0.00 | 1.12 | 1.12 | 93 | 1021.5 |
| 20260507195504 | 11 | 41 | 4.8 | 8.0 | 0.00 | 1.12 | 1.12 | 93 | 1021.3 |
| 20260507195003 | 11 | 31 | 4.8 | 8.0 | 0.00 | 1.12 | 1.12 | 93 | 1021.4 |
| 20260507194503 | 11 | 39 | 1.6 | 4.8 | 0.00 | 1.12 | 1.12 | 93 | 1021.4 |
| 20260507194004 | 11 | 50 | 3.2 | 8.0 | 0.00 | 1.12 | 1.12 | 93 | 1021.1 |
| 20260507193503 | 11 | 52 | 1.6 | 4.8 | 0.00 | 1.12 | 1.12 | 93 | 1021.0 |
| 20260507193004 | 11 | 49 | 1.6 | 3.2 | 0.00 | 1.12 | 1.12 | 93 | 1021.0 |
| 20260507192503 | 11 | 64 | 1.6 | 4.8 | 0.00 | 1.12 | 1.12 | 94 | 1020.9 |
| 20260507192005 | 11 | 20 | 1.6 | 4.8 | 0.00 | 1.12 | 1.12 | 94 | 1020.9 |
| 20260507191503 | 11 | 229 | 0.0 | 1.6 | 0.00 | 1.12 | 1.12 | 94 | 1020.8 |
| 20260507190504 | 11 | 229 | 0.0 | 1.6 | 0.00 | 1.12 | 1.12 | 93 | 1020.4 |
| 20260507190005 | 11 | 229 | 0.0 | 1.6 | 0.00 | 1.12 | 1.12 | 93 | 1020.4 |
| 20260507184504 | 11 | 229 | 0.0 | 1.6 | 0.00 | 1.12 | 1.12 | 93 | 1020.6 |
| 20260507184003 | 12 | 229 | 0.0 | 1.6 | 0.00 | 1.12 | 1.12 | 93 | 1020.5 |
| 20260507183504 | 12 | 229 | 0.0 | 0.0 | 0.00 | 1.12 | 1.12 | 93 | 1020.3 |
| 20260507182504 | 11 | 229 | 1.6 | 3.2 | 0.00 | 1.12 | 1.12 | 93 | 1020.4 |
| 20260507182004 | 12 | 225 | 1.6 | 3.2 | 0.00 | 1.12 | 1.12 | 94 | 1020.5 |
| 20260507181503 | 11 | 220 | 1.6 | 3.2 | 0.03 | 1.12 | 1.12 | 94 | 1020.2 |
| 20260507181004 | 11 | 248 | 1.6 | 4.8 | 0.03 | 1.12 | 1.12 | 94 | 1020.3 |
| 20260507180504 | 11 | 221 | 3.2 | 4.8 | 0.05 | 1.12 | 1.12 | 94 | 1020.4 |
| 20260507180004 | 11 | 242 | 3.2 | 4.8 | 0.05 | 1.12 | 1.12 | 94 | 1020.4 |
| 20260507175004 | 12 | 227 | 3.2 | 8.0 | 0.10 | 1.12 | 1.12 | 94 | 1019.9 |
| 20260507174504 | 12 | 184 | 1.6 | 3.2 | 0.10 | 1.12 | 1.12 | 94 | 1020.0 |
| 20260507174004 | 12 | 230 | 1.6 | 3.2 | 0.13 | 1.12 | 1.12 | 94 | 1019.7 |
| 20260507173503 | 12 | 250 | 1.6 | 3.2 | 0.13 | 1.12 | 1.12 | 94 | 1020.0 |
| 20260507173004 | 11 | 211 | 0.0 | 1.6 | 0.15 | 1.12 | 1.12 | 94 | 1020.1 |
| 20260507172503 | 11 | 231 | 1.6 | 3.2 | 0.18 | 1.12 | 1.12 | 94 | 1020.0 |
| 20260507172005 | 11 | 225 | 0.0 | 3.2 | 0.23 | 1.12 | 1.12 | 94 | 1020.0 |
| 20260507171504 | 11 | 235 | 1.6 | 4.8 | 0.23 | 1.09 | 1.09 | 94 | 1020.0 |
| 20260507171004 | 11 | 308 | 1.6 | 4.8 | 0.28 | 1.09 | 1.09 | 94 | 1020.0 |
| 20260507170004 | 11 | 253 | 1.6 | 3.2 | 0.43 | 1.07 | 1.07 | 93 | 1020.0 |
| 20260507165503 | 11 | 227 | 1.6 | 3.2 | 0.46 | 1.04 | 1.04 | 93 | 1020.0 |
| 20260507165004 | 11 | 131 | 1.6 | 3.2 | 0.51 | 1.02 | 1.02 | 93 | 1020.3 |
| 20260507164504 | 11 | 204 | 1.6 | 9.7 | 0.58 | 1.02 | 1.02 | 92 | 1020.1 |
| 20260507164004 | 11 | 217 | 4.8 | 9.7 | 0.58 | 0.99 | 0.99 | 93 | 1020.1 |
| 20260507163503 | 11 | 211 | 0.0 | 3.2 | 0.61 | 0.99 | 0.99 | 93 | 1020.3 |
| 20260507163004 | 11 | 250 | 3.2 | 4.8 | 0.61 | 0.97 | 0.97 | 93 | 1020.0 |
| 20260507162504 | 11 | 252 | 4.8 | 4.8 | 0.64 | 0.94 | 0.94 | 93 | 1020.3 |
| 20260507162004 | 11 | 212 | 1.6 | 3.2 | 0.61 | 0.89 | 0.89 | 93 | 1020.1 |
| 20260507161505 | 11 | 224 | 0.0 | 3.2 | 0.64 | 0.86 | 0.86 | 93 | 1020.0 |
| 20260507160504 | 11 | 242 | 1.6 | 4.8 | 0.51 | 0.74 | 0.74 | 93 | 1020.0 |
| 20260507155504 | 11 | 236 | 1.6 | 1.6 | 0.38 | 0.58 | 0.58 | 93 | 1020.1 |
| 20260507155004 | 11 | 196 | 1.6 | 1.6 | 0.33 | 0.51 | 0.51 | 93 | 1019.9 |
| 20260507154504 | 11 | 288 | 1.6 | 4.8 | 0.25 | 0.43 | 0.43 | 93 | 1019.9 |
| 20260507154004 | 12 | 35 | 3.2 | 4.8 | 0.25 | 0.41 | 0.41 | 92 | 1020.0 |
| 20260507153004 | 12 | 65 | 4.8 | 11.3 | 0.30 | 0.36 | 0.36 | 92 | 1019.5 |
| 20260507152503 | 12 | 36 | 8.0 | 16.1 | 0.28 | 0.30 | 0.30 | 92 | 1019.2 |
| 20260507152004 | 12 | 38 | 4.8 | 16.1 | 0.25 | 0.28 | 0.28 | 92 | 1019.3 |
| 20260507151504 | 12 | 51 | 4.8 | 11.3 | 0.20 | 0.23 | 0.23 | 92 | 1019.0 |
| 20260507151004 | 13 | 39 | 3.2 | 8.0 | 0.20 | 0.23 | 0.23 | 92 | 1019.0 |
| 20260507150005 | 12 | 49 | 6.4 | 12.9 | 0.20 | 0.20 | 0.20 | 91 | 1019.0 |
| 20260507144004 | 13 | 42 | 4.8 | 12.9 | 0.15 | 0.15 | 0.15 | 87 | 1018.6 |
| 20260507143503 | 14 | 29 | 8.0 | 14.5 | 0.08 | 0.08 | 0.08 | 85 | 1018.5 |
| 20260507143005 | 14 | 50 | 4.8 | 14.5 | 0.05 | 0.05 | 0.05 | 83 | 1018.2 |
| 20260507142504 | 14 | 31 | 3.2 | 16.1 | 0.03 | 0.03 | 0.03 | 83 | 1018.2 |
| 20260507142004 | 14 | 25 | 6.4 | 12.9 | 0.03 | 0.03 | 0.03 | 84 | 1017.9 |
| 20260507141504 | 14 | 40 | 8.0 | 16.1 | 0.03 | 0.03 | 0.03 | 84 | 1018.0 |
| 20260507141003 | 14 | 45 | 8.0 | 19.3 | 0.03 | 0.03 | 0.03 | 84 | 1018.1 |
| 20260507135504 | 15 | 52 | 4.8 | 9.7 | 0.00 | 0.00 | 0.00 | 79 | 1018.0 |
| 20260507135004 | 15 | 53 | 9.7 | 22.5 | 0.00 | 0.00 | 0.00 | 76 | 1017.7 |
| 20260507134504 | 16 | 44 | 8.0 | 19.3 | 0.00 | 0.00 | 0.00 | 75 | 1017.7 |
| 20260507133504 | 16 | 21 | 8.0 | 27.4 | 0.00 | 0.00 | 0.00 | 68 | 1017.5 |
| 20260507133004 | 16 | 31 | 8.0 | 16.1 | 0.00 | 0.00 | 0.00 | 68 | 1017.5 |
| 20260507132503 | 16 | 44 | 8.0 | 19.3 | 0.00 | 0.00 | 0.00 | 67 | 1017.5 |
| 20260507131504 | 17 | 42 | 8.0 | 16.1 | 0.00 | 0.00 | 0.00 | 64 | 1017.5 |
| 20260507131004 | 17 | 27 | 9.7 | 14.5 | 0.00 | 0.03 | 0.00 | 63 | 1017.6 |
| 20260507130504 | 17 | 32 | 6.4 | 16.1 | 0.00 | 0.08 | 0.00 | 63 | 1017.7 |
| 20260507130004 | 17 | 34 | 8.0 | 16.1 | 0.00 | 0.10 | 0.00 | 63 | 1017.5 |
| 20260507125504 | 17 | 45 | 9.7 | 20.9 | 0.00 | 0.15 | 0.00 | 64 | 1017.8 |
| 20260507125004 | 17 | 47 | 9.7 | 20.9 | 0.00 | 0.23 | 0.00 | 63 | 1017.8 |
| 20260507124504 | 18 | 43 | 8.0 | 19.3 | 0.00 | 0.23 | 0.00 | 61 | 1017.5 |
| 20260507123503 | 17 | 42 | 9.7 | 20.9 | 0.00 | 0.23 | 0.00 | 61 | 1017.7 |
| 20260507123004 | 17 | 35 | 11.3 | 20.9 | 0.00 | 0.23 | 0.00 | 63 | 1017.8 |
| 20260507122504 | 17 | 37 | 8.0 | 20.9 | 0.00 | 0.23 | 0.00 | 64 | 1017.8 |
| 20260507122004 | 17 | 59 | 9.7 | 19.3 | 0.00 | 0.23 | 0.00 | 65 | 1018.0 |
| 20260507121004 | 18 | 49 | 8.0 | 20.9 | 0.00 | 0.23 | 0.00 | 63 | 1018.1 |
| 20260507120504 | 18 | 47 | 8.0 | 14.5 | 0.00 | 0.23 | 0.00 | 64 | 1018.0 |
| 20260507120005 | 18 | 44 | 12.9 | 22.5 | 0.00 | 0.23 | 0.00 | 65 | 1018.2 |
| 20260507115503 | 17 | 48 | 9.7 | 20.9 | 0.00 | 0.23 | 0.00 | 66 | 1018.2 |
| 20260507115004 | 17 | 37 | 8.0 | 16.1 | 0.00 | 0.23 | 0.00 | 67 | 1018.5 |
| 20260507114504 | 17 | 44 | 9.7 | 22.5 | 0.00 | 0.23 | 0.00 | 68 | 1018.7 |
| 20260507114004 | 16 | 23 | 8.0 | 14.5 | 0.00 | 0.23 | 0.00 | 70 | 1018.9 |
| 20260507113504 | 16 | 32 | 11.3 | 22.5 | 0.00 | 0.23 | 0.00 | 71 | 1018.8 |
| 20260507113004 | 16 | 49 | 8.0 | 16.1 | 0.00 | 0.23 | 0.00 | 69 | 1018.7 |
| 20260507112004 | 16 | 49 | 8.0 | 24.1 | 0.00 | 0.23 | 0.00 | 69 | 1019.2 |
| 20260507111506 | 16 | 49 | 9.7 | 16.1 | 0.00 | 0.23 | 0.00 | 69 | 1019.1 |
| 20260507110504 | 17 | 33 | 9.7 | 16.1 | 0.00 | 0.23 | 0.00 | 68 | 1018.9 |
| 20260507110004 | 17 | 39 | 8.0 | 20.9 | 0.00 | 0.23 | 0.00 | 68 | 1019.0 |
| 20260507105504 | 17 | 37 | 9.7 | 16.1 | 0.00 | 0.23 | 0.00 | 68 | 1019.2 |
| 20260507104504 | 16 | 42 | 6.4 | 14.5 | 0.00 | 0.23 | 0.00 | 71 | 1019.6 |
| 20260507104004 | 16 | 46 | 9.7 | 16.1 | 0.00 | 0.23 | 0.00 | 72 | 1019.6 |
| 20260507103503 | 16 | 48 | 8.0 | 16.1 | 0.00 | 0.23 | 0.00 | 73 | 1019.6 |
| 20260507103003 | 16 | 347 | 3.2 | 9.7 | 0.00 | 0.23 | 0.00 | 73 | 1019.6 |
| 20260507102504 | 16 | 39 | 3.2 | 8.0 | 0.00 | 0.23 | 0.00 | 74 | 1019.8 |
| 20260507102006 | 15 | 359 | 3.2 | 11.3 | 0.00 | 0.23 | 0.00 | 74 | 1019.7 |
| 20260507101506 | 16 | 53 | 4.8 | 9.7 | 0.00 | 0.23 | 0.00 | 73 | 1019.7 |
| 20260507101004 | 15 | 105 | 4.8 | 11.3 | 0.00 | 0.23 | 0.00 | 75 | 1019.7 |
| 20260507100504 | 15 | 42 | 4.8 | 11.3 | 0.00 | 0.23 | 0.00 | 76 | 1019.8 |
| 20260507095003 | 15 | 34 | 8.0 | 12.9 | 0.00 | 0.23 | 0.00 | 77 | 1020.3 |
| 20260507094504 | 15 | 38 | 6.4 | 11.3 | 0.00 | 0.23 | 0.00 | 77 | 1020.1 |
| 20260507094004 | 15 | 42 | 4.8 | 11.3 | 0.00 | 0.23 | 0.00 | 77 | 1020.3 |
| 20260507093037 | 15 | 46 | 6.4 | 12.9 | 0.00 | 0.23 | 0.00 | 76 | 1020.1 |
| 20260507092533 | 15 | 39 | 6.4 | 14.5 | 0.00 | 0.23 | 0.00 | 77 | 1020.0 |
| 20260507091036 | 15 | 42 | 3.2 | 11.3 | 0.00 | 0.23 | 0.00 | 78 | 1020.1 |
| 20260507090532 | 15 | 57 | 3.2 | 11.3 | 0.00 | 0.23 | 0.00 | 78 | 1020.2 |
| 20260507090033 | 15 | 40 | 3.2 | 9.7 | 0.00 | 0.23 | 0.00 | 78 | 1020.3 |
| 20260507085509 | 15 | 14 | 3.2 | 8.0 | 0.00 | 0.23 | 0.00 | 80 | 1020.4 |
| 20260507084504 | 14 | 36 | 8.0 | 14.5 | 0.00 | 0.23 | 0.00 | 80 | 1020.6 |
| 20260507084004 | 14 | 47 | 3.2 | 8.0 | 0.00 | 0.23 | 0.00 | 81 | 1020.4 |
| 20260507083503 | 14 | 25 | 4.8 | 12.9 | 0.00 | 0.23 | 0.00 | 81 | 1020.6 |
| 20260507083004 | 14 | 52 | 3.2 | 8.0 | 0.00 | 0.23 | 0.00 | 81 | 1020.4 |
| 20260507082504 | 14 | 58 | 4.8 | 9.7 | 0.00 | 0.23 | 0.00 | 81 | 1020.5 |
| 20260507081504 | 14 | 56 | 3.2 | 8.0 | 0.00 | 0.23 | 0.00 | 81 | 1020.4 |
| 20260507081004 | 14 | 34 | 4.8 | 11.3 | 0.00 | 0.23 | 0.00 | 81 | 1020.5 |
| 20260507080504 | 14 | 35 | 4.8 | 11.3 | 0.00 | 0.23 | 0.00 | 82 | 1020.4 |
| 20260507080004 | 14 | 48 | 4.8 | 11.3 | 0.00 | 0.23 | 0.00 | 84 | 1020.4 |
| 20260507075504 | 13 | 50 | 3.2 | 11.3 | 0.00 | 0.23 | 0.00 | 84 | 1020.2 |
| 20260507075004 | 13 | 50 | 3.2 | 9.7 | 0.00 | 0.23 | 0.00 | 85 | 1020.1 |
| 20260507074503 | 13 | 54 | 4.8 | 11.3 | 0.00 | 0.23 | 0.00 | 86 | 1020.3 |
| 20260507074004 | 13 | 47 | 1.6 | 4.8 | 0.00 | 0.23 | 0.00 | 87 | 1020.4 |
| 20260507072504 | 13 | 60 | 1.6 | 3.2 | 0.00 | 0.23 | 0.00 | 87 | 1020.6 |
| 20260507072004 | 12 | 7 | 0.0 | 3.2 | 0.00 | 0.23 | 0.00 | 88 | 1020.9 |
| 20260507071504 | 12 | 64 | 0.0 | 3.2 | 0.00 | 0.23 | 0.00 | 88 | 1020.7 |